Location: Gaast
(52.9002°N, 5.8891°E)
Time: 09:19:16
(UTC+00:00)

Cosmos 1025 Rocket - Pass Details

Date: 18 November 2025
Orbit: 586 x 610 km, 82.5° (Epoch: 11 December)

Event Time Altitude Azimuth Distance (km) Brightness Sun altitude
Rises 16:11:46 0° 345° (NNW) 2,871 6.4 -5.4°
Reaches altitude 10° 16:14:02 10° 341° (NNW) 1,959 5.6 -5.7°
Maximum altitude 16:18:15 55° 264° (W) 726 3.9 -6.3°
Drops below altitude 10° 16:22:25 10° 187° (S) 1,928 6.0 -6.8°
Sets 16:24:38 0° 183° (S) 2,821 6.8 -7.2°
